Location: Navarre
(52.9016°N, 113.4144°W)
Time: 12:19:54
(UTC+00:00)

Envisat - Pass Details

Date: 06 December 2021
Orbit: 764 x 766 km, 98.2° (Epoch: 23 January)

Event Time Altitude Azimuth Distance (km) Brightness Sun altitude
Rises 12:35:51 0° 16° (NNE) 3,248 6.4 -25.1°
Reaches altitude 10° 12:38:11 10° 19° (NNE) 2,317 5.6 -24.7°
Maximum altitude 12:43:17 70° 103° (ESE) 819 3.2 -24.0°
Drops below altitude 10° 12:48:20 10° 187° (S) 2,298 5.5 -23.2°
Sets 12:50:39 0° 190° (S) 3,220 6.2 -22.9°
